STARLINK-32743, 62480

Orbit data source: Space-Track

STARLINK-32743, 62480 is a payload satellite owned by SpaceX/Seattle (US) in LEO that was launched on Tue, 31 Dec 2024 UTC via an FALCON 9 launch vehicle from the Air Force Eastern Test Range (AFETR). Payload-class satellites include a variety of spacecraft equipped with specific instruments for various scientific and technological missions. These include communications satellites like Starlink; space stations such as the ISS; scientific satellites like the Hubble; Earth observation satellites from companies like Planet Labs, Umbra, and HawkEye 360; GPS; miniature CubeSats for education and research; and military/defense satellites.

Loading next visibility...
Identifier
62480, 2024-254U
Orbit
LEO
Country
Flag of USUS
Related business
Manufacturer
SpaceX/Seattle
Mission
Operational Commercial Communications
Bus & Motor
STARLINK V2M, Unknown motor
Mass
730 kg wet, ~700 kg dry
Launch date (UTC)
2024-12-31 (9 months ago)
Launch vehicle
FALCON 9
Launch site
Air Force Eastern Test Range (AFETR)
Object type
Payload
Rocket body
Debris
Shape & HBR
Box + 2 Pan, 14.5 m
Radar Cross Section
33.884 m², Large (>1 m²)

Expand to show TLE details & history
Last TLE update: 1 day ago

TLE from 1 day ago
0 STARLINK-32743
1 62480U 24254U   25260.44884907  .00015693  00000-0  57851-3 0  9999
2 62480  42.9991 274.2586 0000324 262.9390  97.1425 15.27583029 41162
Epoch: 2025-09-17T10:46Z
TLE epoch observation values (Epoch: 2025-09-17T10:46:20.559Z)
Latitude
-0.00001°
Longitude
116.04828°
Altitude
482.843 km
Speed
7.626 km/s
True Right ascension
18h 17m 02s
True Declination
0° 00' 00"
Sunlit
Object was in daylight at epoch
Visualization orbit readout
Latitude
Unknown
Longitude
Unknown
Altitude
Unknown
Speed
Unknown
Apparent Right ascension
Unknown
Apparent Declination
Unknown
Sunlit
N/A
Visualization observer readout
Local Sidereal Time
06:44:01
Azimuth
Unknown
Elevation
Unknown
Doppler factor
Unknown
Orbital elements
Apogee altitude
485.208 km
Perigee altitude
484.763 km
Semi-major axis
6,863.122 km
Eccentricity
0.00003
Inclination
42.9991°
RAAN
274.2586°
Arg. of periapsis
262.939°
True anomaly
97.14618°
Mean anomaly
97.1425°
Eccentric anomaly
97.14434°
Mean motion
3.81734 °/min
Orbital period
94.31 mins
BSTAR
0.00057851
Loading maneuver chart data...
Computing Atmospheric mass density...
Loading historical data...
Loading historical data...
Loading historical data...
Loading historical data...
Loading historical data...
Loading historical data...
Loading historical data...

Documentation

Showing up to 5 results
|